Regional Weather Roundup
Issued by NWS Wakefield, VA

Home | Current Version | Previous Version | Text Only | Print | Product List | Glossary On
Versions: 1 2 3 4 5 6 7 8 9 10 11 12 13 14 15 16 17 18 19 20 21 22 23 24 25 26 27 28 29 30 31 32 33 34 35 36 37 38 39 40 41 42 43 44 45 46 47 48 49 50
000
ASUS41 KAKQ 221616
RWRAKQ

REGIONAL WEATHER ROUNDUP
NATIONAL WEATHER SERVICE WAKEFIELD VA
1100 AM EST MON JAN 22 2018

Note: "fair" indicates few or no clouds below 12,000 feet with no
significant weather and/or obstructions to visibility. * = Denotes
station may not report precipitation (e.g., rain,snow,etc.),
thunder or fog.

VAZ042-051-052>054-056-221700-
NORTHERN VIRGINIA

CITY           SKY/WX    TMP DP  RH WIND       PRES   REMARKS
WASH NATIONAL  CLOUDY    56  42  59 S10       30.15F
DULLES         CLOUDY    56  44  64 S9        30.13F
FORT BELVOIR   FAIR      57  42  56 S5        30.14F
QUANTICO       CLOUDY    50  41  71 SW6       30.16F
FREDERICKSBRG* FAIR      60  45  57 S7        30.14F
STAFFORD*      FAIR      59  44  57 S6        30.18F
WARRENTON      FAIR      59  40  49 S7        30.13F
CULPEPER*      FAIR      58  42  55 S7        30.14F
MANASSAS*      FAIR      59  44  57 S9        30.13F
LEESBURG*      FAIR      55  46  71 S7        30.13F
WINCHESTER     CLOUDY    55  43  62 S3        30.12S
FRONT ROYAL*   FAIR      59  43  55 SE5       30.10S
LURAY*         FAIR      61  45  55 SW8       30.11S
$$

VAZ048-049-060>072-079>083-221700-
CENTRAL AND SOUTH CENTRAL VIRGINIA

CITY           SKY/WX    TMP DP  RH WIND       PRES   REMARKS
RICHMOND       CLOUDY    60  42  51 SW8       30.19F
CHESTERFIELD*  NOT AVBL
PETERSBURG*    FAIR      55  41  58 S3        30.20F
HANOVER        FAIR      61  42  49 S8        30.18F
TAPPAHANNOCK*  FAIR      63  43  48 SW6       30.19F
QUINTON*       FAIR      58  43  56 S10G20    30.19F
CHARLOTTSVILLE FAIR      59  44  57 S9        30.13F
GORDONSVILLE*  FAIR      56  44  63 SW6       30.14F
ORANGE*        FAIR      55  43  62 S6        30.14F
LOUISA*        FAIR      58  42  54 S9        30.19F
BUMPASS*       FAIR      60  40  47 S12G18    30.16F
FARMVILLE*     FAIR      58  44  59 S6        30.16F
CREWE*         FAIR      59  44  57 S5        30.17F
FORT PICKETT*  FAIR      57  43  58 SW8       30.18F
CHASE CITY*    FAIR      55  43  63 S3        30.19F
CLARKSVILLE*   FAIR      54  43  66 S3        30.19F
SOUTH HILL*    FAIR      56  45  67 SW7       30.25F
LAWRENCEVILLE* FAIR      58  44  59 S3        30.20F
EMPORIA*       FAIR      57  43  58 SE3       30.22F
$$

VAZ088>098-221700-
SOUTHEAST VIRGINIA

CITY           SKY/WX    TMP DP  RH WIND       PRES   REMARKS
NORFOLK        FAIR      62  42  47 S9        30.21F
VIRGINIA BEACH PTSUNNY   62  40  44 S10       30.22F
NORFOLK NAVAL  FAIR      62  42  47 S7        30.23F
WEST POINT*    FAIR      59  42  53 S5        30.22F
SALUDA*        FAIR      60  45  56 CALM      30.21S
NEWPORT NEWS   FAIR      58  43  57 S8        30.22F
LANGLEY AFB    PTSUNNY   58  43  58 S8        30.22F
FORT EUSTIS    FAIR      56  43  62 S6        30.19F
WILLIAMSBURG*  FAIR      57  45  62 CALM      30.22F
HR EXEC AP*    FAIR      62  44  51 S7        30.23F
FRANKLIN*      FAIR      56  42  58 S3        30.23F
US460-WAKEFLD  FAIR      58  44  60 VRB5      30.21F
$$

VAZ020-022-025-037-045-221700-
WEST CENTRAL AND SOUTHWEST VIRGINIA

CITY           SKY/WX    TMP DP  RH WIND       PRES   REMARKS
STAUNTON*      FAIR      57  43  58 SW5       30.14S
WAYNESBORO*    FAIR      57  45  64 W3        30.13S
HOT SPRINGS VA FAIR      50  37  60 S12G21    30.15S
LYNCHBURG      FAIR      52  41  66 S5        30.17S
DANVILLE         N/A    N/A N/A N/A MISG      30.18F
SOUTH BOSTON*  FAIR      57  40  53 S5        30.18F
MARTINSVILLE   FAIR      54  41  61 CALM      30.20S
ROANOKE        PTSUNNY   50  42  74 CALM      30.17S
BLACKSBURG     FAIR      55  42  63 SW5       30.17F
DUBLIN*        FAIR      47  42  82 CALM      30.16F
MARION*        FAIR      56  39  52 NE7       30.15S
HILLSVILLE*    FAIR      54  42  63 S12       30.14F
RICHLANDS*     FAIR      56  40  55 SE7G16    30.08F
WISE*          FAIR      55  43  62 S12G18    30.07S
ABINGDON*      FAIR      55  45  70 E7        30.08F
$$

MDZ021>025-VAZ099-100-221700-
SOUTHERN MARYLAND AND THE DELMARVA PENINSULA

CITY           SKY/WX    TMP DP  RH WIND       PRES   REMARKS
PATUXENT RIVER PTSUNNY   60  43  53 SW13      30.17S
BAY BRIDGE APT CLOUDY    52  39  62 SE6       30.16F
LEONARDTOWN    FAIR      61  43  51 SW10      30.17F
DOVER          CLOUDY    59  46  60 SW8       30.16S
GEORGETOWN     CLOUDY    65  42  43 SW10      30.18F
EASTON         PTSUNNY   59  39  47 SW9       30.21R
CAMBRIDGE      PTSUNNY   52  41  66 SE8       30.18F
SALISBURY      CLOUDY    60  43  53 S8        30.19F
OCEAN CITY     PTSUNNY   52  41  66 S5        30.21F
WALLOPS ISLAND PTSUNNY   62  43  49 S6        30.22S
ACCOMACK*      FAIR      63  44  50 SW7       30.21F
$$

NCZ012>017-030>032-221700-
NORTH CENTRAL AND EASTERN NORTH CAROLINA

CITY           SKY/WX    TMP DP  RH WIND       PRES   REMARKS
ROANOKE RAPIDS FAIR      55  43  62 CALM      30.21F
RALEIGH        CLOUDY    57  45  64 CALM      30.20F
ELIZABETH CITY FAIR      60  52  74 S3        30.24F
AHOSKIE*       FAIR      58  43  58 S3        30.22F
EDENTON*       FAIR      57  44  62 CALM      30.24F
CURRITUCK*     FAIR      58  42  55 SW6       30.24F
KILL DEVIL HLS FAIR      56  39  52 CALM      30.23F
MANTEO         FAIR      54  41  61 CALM      30.25F
CAPE HATTERAS  NOT AVBL
TARBORO*       NOT AVBL
GOLDSBORO      FAIR      58  43  57 CALM      30.21S
WASHINGTON     FAIR      59  42  53 CALM      30.24S
GREENVILLE     FAIR      59  43  55 CALM      30.24S
NEW BERN       FAIR      57  41  55 SE3       30.24F
WILMINGTON     FAIR      59  41  51 SE8       30.23F
$$

VAZ048-221700-
ELSEWHERE

CITY           SKY/WX    TMP DP  RH WIND       PRES   REMARKS
HARRISBURG PA  PTSUNNY   45  39  79 CALM      30.13F HAZE
BALTIMORE      CLOUDY    53  41  63 E5        30.14F
ANNAPOLIS      CLOUDY    43  38  82 SE9       30.15F
ANDREWS AFB    FAIR      58  42  55 S8        30.13F
PHILADELPHIA   CLOUDY    51  39  63 VRB6      30.19R
HENDERSON NC   FAIR      53  40  61 S5        30.20F
GREENSBORO     CLOUDY    52  43  71 SW6       30.18S
ROCKY MOUNT    FAIR      57  45  64 CALM      30.22F
$$

VAZ100-221700-
MARINE

STATION/POSITION TIME  TEMP    WIND        PRES    WAVE   SWELL
                       AIR SEA DIR/SP/G            HT/PER HT/PER
                 (UTC) (F)     (DEG/KT/KT) (MB)    (FT/S) (FT/S)
BRANDYWINE LGT   1536   52     180/ 14/ 15 1022.0F
CAPE MAY NJ      1536   51 35  170/  9/ 13 1021.5F
LEWES DE         1536   59 35  200/  6/  8 1021.9F
15NM E FENWICK I 1550   43 38  160/  8/  8 1023.4S   1/ 4   2/10
OCEAN-CITY-INLET 1536   47 37  220/  7/  8 1023.4F
WACHAPREAGUE VA  1536   51 39  200/  9/ 11 1023.4F
THOMAS POINT MD  1600   40 34  190/  5/  5   N/A
GOOSES REEF MD   1500   40 34  160/ 10/ 10 1022.0    1/ 2
COVE POINT MD    1536   43     180/  8/  9 1022.6R
SOLOMONS ISLAND  1536   51 35   CALM  /  1 1021.7R
BISHOPS HEAD MD  1536   42 38  160/  8/ 13 1022.7R
PINEY POINT MD   1542          200/  9/  9   N/A
POTOMAC MD       1450   45     290/ 12/ 12 1021.6
CAMBRIDGE MD     1536   56 33              1022.7R
LEWISETTA VA     1542   58 37  200/  5/  6 1022.4R
RAPPAHANNOCK LGT 1542          170/ 15/ 16 1023.8F
STINGRAY PT      1500   48 36  220/  6/  8 1026.1    0
YORK RVR RNG VA  1542   47     200/  7/  8 1023.7F
YORKTOWN VA      1542   58 37  220/  5/  8 1022.8F
DOMINION TERM VA 1542   51     180/  1/  2 1023.7F
KIPTOPEKE VA     1542      36  160/  4/  4   N/A
CAPE HENRY VA    1542   61     200/  8/ 11   N/A
WILLOUBY STN VA  1542          210/  6/  7 1023.2F
S CRANEY ISL VA  1542   54     180/  4/  4 1023.3F
CAPE HENRY BUOY  1600      40                N/A     1/11
1ST LANDING BUOY 1500   45 36  230/  2/  4 1023.8    1
CAPE CHARLES BUO 1551      40                N/A     1/10
64NM E OF VA BCH 1550   57 59  210/  4/  4 1024.7F   1/10   2/10
DUCK PIER NC     1542   54 41  220/  5/  6 1023.6F
44100 DUCK FRF   1545      39                N/A     1/11
44056 DUCK FRF   1600      42                N/A     1/10
OREGON INLET NC  1542   51 43  210/  2/  2 1024.3F
HATTERAS NC      1542   54 50  280/  2/  3 1023.9F
DIAMOND SHLS NC  1600   65     180/  4/  8 1024.3
CAPE LOOKOUT NC  1600           50/  6/  6 1023.9F
$$



USA.gov is the U.S. government's official web portal to all federal, state and local government web resources and services.